Location: Newark
(39.6867°N, 100.6772°W)
Time: 15:49:43
(UTC+00:00)

Vanguard 1 - Pass Details

Date: 15 October 2019
Orbit: 652 x 3831 km, 34.2° (Epoch: 17 November)

Event Time Altitude Azimuth Distance (km) Brightness Sun altitude
Rises 08:09:49 0° 282° (WNW) 6,518 - -51.4°
Reaches altitude 10° 08:13:46 10° 277° (W) 5,845 - -50.9°
Maximum altitude 08:32:23 50° 210° (SSW) 4,372 - -48.3°
Exits shadow 08:41:25 38° 166° (SSE) 4,959 13.3 -47.0°
Drops below altitude 10° 08:53:57 10° 143° (SE) 6,617 14.2 -45.0°
Sets 08:58:51 0° 138° (SE) 7,388 14.6 -44.2°
